Location: Taukkyan
(23.1052°N, 94.0030°E)
Time: 11:16:44
(UTC+00:00)

ALOS - Pass Details

Date: 06 July 2020
Orbit: 684 x 685 km, 97.9° (Epoch: 14 August)

Event Time Altitude Azimuth Distance (km) Brightness Sun altitude
Rises 22:28:41 0° 9° (N) 3,044 6.2 -8.1°
Reaches altitude 10° 22:30:55 10° 8° (N) 2,126 5.4 -7.6°
Maximum altitude 22:35:34 79° 283° (WNW) 698 2.3 -6.7°
Drops below altitude 10° 22:40:12 10° 196° (SSW) 2,118 4.4 -5.8°
Sets 22:42:26 0° 195° (SSW) 3,031 5.2 -5.3°
